| time (UTC) | temp F | wind direction | speed knots | gust knots | rain 1hr in | rain 24hr in | rain mn in | humidity % | barometer mb |
| 20260510041555 | 52 | 0 | 0.0 | 0.0 | 0.00 | 0.24 | 0.01 | 96 | 1011.5 |
| 20260510040058 | 52 | 0 | 0.0 | 0.0 | 0.00 | 0.24 | 0.01 | 95 | 1011.6 |
| 20260510034553 | 52 | 0 | 0.0 | 1.7 | 0.00 | 0.24 | 0.01 | 95 | 1011.6 |
| 20260510033102 | 53 | 40 | 0.0 | 3.5 | 0.00 | 0.24 | 0.01 | 95 | 1011.8 |
| 20260510031558 | 53 | 5 | 0.9 | 2.6 | 0.00 | 0.24 | 0.01 | 95 | 1011.9 |
| 20260510030052 | 53 | 0 | 0.0 | 0.0 | 0.00 | 0.24 | 0.01 | 96 | 1012.0 |
| 20260510024553 | 53 | 0 | 0.0 | 0.0 | 0.00 | 0.24 | 0.01 | 96 | 1012.0 |
| 20260510023056 | 53 | 0 | 0.0 | 0.0 | 0.00 | 0.24 | 0.01 | 96 | 1011.7 |
| 20260510021556 | 53 | 0 | 0.0 | 0.0 | 0.00 | 0.24 | 0.01 | 96 | 1011.7 |
| 20260510020059 | 53 | 0 | 0.0 | 2.6 | 0.00 | 0.24 | 0.01 | 95 | 1011.7 |
| 20260510014549 | 53 | 0 | 0.0 | 0.0 | 0.00 | 0.24 | 0.01 | 95 | 1011.9 |
| 20260510013055 | 54 | 0 | 0.0 | 0.0 | 0.00 | 0.24 | 0.01 | 95 | 1012.0 |
| 20260510011559 | 54 | 0 | 0.0 | 0.0 | 0.00 | 0.24 | 0.01 | 95 | 1012.0 |
| 20260510010055 | 55 | 0 | 0.0 | 2.6 | 0.00 | 0.24 | 0.01 | 94 | 1012.2 |
| 20260510004559 | 55 | 236 | 0.0 | 2.6 | 0.00 | 0.24 | 0.01 | 95 | 1012.3 |
| 20260510003052 | 56 | 150 | 0.9 | 2.6 | 0.00 | 0.24 | 0.01 | 95 | 1012.5 |
| 20260510001550 | 56 | 0 | 0.0 | 4.3 | 0.00 | 0.24 | 0.01 | 95 | 1012.7 |
| 20260510000059 | 56 | 166 | 0.9 | 3.5 | 0.00 | 0.24 | 0.01 | 95 | 1012.9 |
| 20260509234552 | 56 | 0 | 0.0 | 1.7 | 0.00 | 0.24 | 0.01 | 95 | 1013.4 |
| 20260509233053 | 56 | 0 | 0.0 | 0.0 | 0.00 | 0.23 | 0.00 | 95 | 1013.5 |
| 20260509231552 | 56 | 0 | 0.0 | 0.0 | 0.00 | 0.23 | 0.00 | 95 | 1013.7 |
| 20260509230055 | 56 | 0 | 0.0 | 0.0 | 0.00 | 0.23 | 0.00 | 95 | 1013.8 |
| 20260509224552 | 56 | 0 | 0.0 | 0.0 | 0.01 | 0.23 | 0.00 | 94 | 1013.7 |
| 20260509223056 | 56 | 0 | 0.0 | 1.7 | 0.00 | 0.22 | 0.00 | 94 | 1013.8 |
| 20260509221554 | 56 | 0 | 0.9 | 2.6 | 0.01 | 0.22 | 0.00 | 94 | 1013.7 |
| 20260509220056 | 57 | 46 | 0.0 | 0.0 | 0.02 | 0.22 | 0.00 | 94 | 1013.8 |
| 20260509214610 | 57 | 0 | 0.0 | 0.0 | 0.01 | 0.22 | 0.22 | 94 | 1013.7 |
| 20260509213056 | 57 | 0 | 0.0 | 1.7 | 0.02 | 0.22 | 0.22 | 93 | 1013.6 |
| 20260509211554 | 57 | 46 | 0.0 | 2.6 | 0.02 | 0.21 | 0.21 | 93 | 1013.4 |
| 20260509210100 | 57 | 0 | 0.0 | 3.5 | 0.01 | 0.20 | 0.20 | 93 | 1013.1 |
| 20260509204553 | 57 | 47 | 1.7 | 4.3 | 0.01 | 0.20 | 0.20 | 92 | 1012.9 |
| 20260509203103 | 57 | 321 | 0.0 | 2.6 | 0.01 | 0.19 | 0.19 | 93 | 1012.8 |
| 20260509201553 | 56 | 0 | 0.0 | 2.6 | 0.01 | 0.18 | 0.18 | 93 | 1012.5 |
| 20260509200056 | 56 | 0 | 0.0 | 0.0 | 0.04 | 0.18 | 0.18 | 92 | 1012.1 |
| 20260509194553 | 56 | 0 | 0.0 | 2.6 | 0.08 | 0.18 | 0.18 | 92 | 1012.0 |
| 20260509193058 | 56 | 42 | 1.7 | 5.2 | 0.10 | 0.18 | 0.18 | 92 | 1011.2 |
| 20260509191601 | 57 | 0 | 0.0 | 1.7 | 0.11 | 0.17 | 0.17 | 93 | 1011.6 |
| 20260509190055 | 57 | 155 | 0.0 | 1.7 | 0.10 | 0.14 | 0.14 | 91 | 1012.4 |
| 20260509184600 | 57 | 0 | 0.9 | 4.3 | 0.07 | 0.10 | 0.10 | 90 | 1012.8 |
| 20260509183059 | 58 | 155 | 2.6 | 6.1 | 0.07 | 0.07 | 0.07 | 90 | 1013.2 |
| 20260509181554 | 58 | 159 | 1.7 | 6.1 | 0.06 | 0.06 | 0.06 | 90 | 1013.3 |
| 20260509180054 | 59 | 165 | 2.6 | 7.0 | 0.03 | 0.03 | 0.03 | 89 | 1013.0 |
| 20260509174619 | 60 | 146 | 1.7 | 5.2 | 0.02 | 0.02 | 0.02 | 88 | 1012.9 |
| 20260509173054 | 61 | 146 | 2.6 | 5.2 | 0.00 | 0.00 | 0.00 | 84 | 1012.9 |
| 20260509171550 | 62 | 209 | 0.9 | 5.2 | 0.00 | 0.00 | 0.00 | 82 | 1012.8 |
| 20260509170100 | 62 | 179 | 0.9 | 4.3 | 0.00 | 0.00 | 0.00 | 78 | 1012.7 |
| 20260509164553 | 63 | 219 | 0.0 | 4.3 | 0.00 | 0.00 | 0.00 | 77 | 1012.5 |
| 20260509163057 | 63 | 202 | 0.9 | 3.5 | 0.00 | 0.00 | 0.00 | 74 | 1012.0 |
| 20260509161556 | 63 | 159 | 0.0 | 3.5 | 0.00 | 0.00 | 0.00 | 75 | 1011.6 |
| 20260509160054 | 63 | 190 | 0.0 | 5.2 | 0.00 | 0.00 | 0.00 | 75 | 1011.9 |
| 20260509154552 | 64 | 0 | 1.7 | 5.2 | 0.00 | 0.00 | 0.00 | 73 | 1012.1 |
| 20260509153115 | 65 | 236 | 0.9 | 6.1 | 0.00 | 0.00 | 0.00 | 72 | 1012.0 |
| 20260509151556 | 65 | 159 | 1.7 | 7.0 | 0.00 | 0.00 | 0.00 | 70 | 1012.5 |
| 20260509150055 | 66 | 184 | 1.7 | 5.2 | 0.00 | 0.00 | 0.00 | 67 | 1012.9 |
| 20260509144553 | 67 | 0 | 1.7 | 4.3 | 0.00 | 0.00 | 0.00 | 67 | 1012.8 |
| 20260509143056 | 66 | 172 | 0.9 | 7.8 | 0.00 | 0.00 | 0.00 | 64 | 1013.0 |
| 20260509141555 | 66 | 181 | 2.6 | 8.7 | 0.00 | 0.00 | 0.00 | 70 | 1013.2 |
| 20260509140052 | 67 | 0 | 1.7 | 6.1 | 0.00 | 0.00 | 0.00 | 66 | 1013.1 |
| 20260509134552 | 66 | 221 | 1.7 | 6.1 | 0.00 | 0.00 | 0.00 | 69 | 1013.1 |
| 20260509133054 | 66 | 252 | 2.6 | 7.0 | 0.00 | 0.00 | 0.00 | 71 | 1013.1 |
| 20260509131552 | 66 | 260 | 1.7 | 6.1 | 0.00 | 0.00 | 0.00 | 72 | 1013.2 |
| 20260509130107 | 65 | 153 | 1.7 | 8.7 | 0.00 | 0.00 | 0.00 | 73 | 1013.7 |
| 20260509124556 | 66 | 279 | 3.5 | 9.6 | 0.00 | 0.00 | 0.00 | 72 | 1013.9 |
| 20260509123100 | 66 | 178 | 2.6 | 7.8 | 0.00 | 0.00 | 0.00 | 71 | 1014.2 |
| 20260509121627 | 67 | 2.6 | 4.3 | 0.00 | 0.00 | 0.00 | 66 | 1014.2 | |
| 20260509120059 | 67 | 169 | 4.3 | 5.2 | 0.00 | 0.00 | 0.00 | 65 | 1014.0 |
| 20260509114603 | 68 | 2.6 | 7.8 | 0.00 | 0.00 | 0.00 | 69 | 1014.1 | |
| 20260509113102 | 67 | 350 | 4.3 | 6.1 | 0.00 | 0.00 | 0.00 | 68 | 1014.1 |
| 20260509111556 | 68 | 4.3 | 6.1 | 0.00 | 0.00 | 0.00 | 66 | 1014.2 | |
| 20260509110105 | 68 | 2.6 | 6.1 | 0.00 | 0.00 | 0.00 | 68 | 1014.3 | |
| 20260509104600 | 0 | 243 | 3.5 | 3.5 | 0.00 | 0.00 | 0.00 | 67 | 1014.6 |
| 20260509103103 | 69 | 240 | 5.2 | 7.8 | 0.00 | 0.00 | 0.00 | 65 | 1014.4 |
| 20260509101605 | 68 | 236 | 3.5 | 10.4 | 0.00 | 0.00 | 0.00 | 68 | 1014.3 |
| 20260509100054 | 67 | 215 | 1.7 | 4.3 | 0.00 | 0.00 | 0.00 | 72 | 1014.1 |
| 20260509094603 | 66 | 210 | 1.7 | 7.0 | 0.00 | 0.00 | 0.00 | 75 | 1014.2 |
| 20260509093052 | 66 | 213 | 1.7 | 7.0 | 0.00 | 0.00 | 0.00 | 74 | 1014.2 |
| 20260509091605 | 66 | 186 | 1.7 | 5.2 | 0.00 | 0.00 | 0.00 | 75 | 1014.1 |
| 20260509090105 | 63 | 226 | 3.5 | 3.5 | 0.00 | 0.00 | 0.00 | 79 | 1014.1 |
| 20260509084559 | 63 | 4.3 | 5.2 | 0.00 | 0.00 | 0.00 | 79 | 1014.4 | |
| 20260509083102 | 63 | 1.7 | 3.5 | 0.00 | 0.00 | 0.00 | 80 | 1014.5 | |
| 20260509081556 | 63 | 284 | 0.9 | 5.2 | 0.00 | 0.00 | 0.00 | 81 | 1014.6 |
| 20260509080100 | 63 | 235 | 0.9 | 4.3 | 0.00 | 0.00 | 0.00 | 81 | 1014.5 |
| 20260509074557 | 62 | 198 | 2.6 | 4.3 | 0.00 | 0.00 | 0.00 | 82 | 1014.6 |
| 20260509073057 | 61 | 214 | 1.7 | 3.5 | 0.00 | 0.00 | 0.00 | 84 | 1014.8 |
| 20260509071556 | 60 | 232 | 0.9 | 3.5 | 0.00 | 0.00 | 0.00 | 86 | 1014.7 |
| 20260509070057 | 59 | 240 | 0.0 | 2.6 | 0.00 | 0.00 | 0.00 | 89 | 1014.7 |
| 20260509064553 | 57 | 211 | 0.0 | 2.6 | 0.00 | 0.00 | 0.00 | 90 | 1014.7 |
| 20260509063059 | 57 | 0 | 0.0 | 1.7 | 0.00 | 0.00 | 0.00 | 91 | 1014.9 |
| 20260509061554 | 56 | 211 | 0.9 | 1.7 | 0.00 | 0.00 | 0.00 | 91 | 1015.2 |
| 20260509060110 | 55 | 0 | 0.0 | 2.6 | 0.00 | 0.00 | 0.00 | 92 | 1015.2 |
| 20260509054606 | 54 | 0 | 0.0 | 2.6 | 0.00 | 0.00 | 0.00 | 93 | 1014.9 |
| 20260509053123 | 54 | 0 | 0.9 | 2.6 | 0.00 | 0.00 | 0.00 | 93 | 1014.9 |
| 20260509051559 | 53 | 0 | 0.0 | 0.0 | 0.00 | 0.00 | 0.00 | 93 | 1014.8 |
| 20260509050100 | 53 | 0 | 0.0 | 0.9 | 0.00 | 0.00 | 0.00 | 93 | 1014.7 |
| 20260509044659 | 54 | 0 | 0.0 | 1.7 | 0.00 | 0.00 | 0.00 | 93 | 1014.6 |
| 20260509043135 | 54 | 0 | 0.0 | 2.6 | 0.00 | 0.00 | 0.00 | 93 | 1014.6 |